Location: Oulou
(10.7667°N, 12.5167°W)
Time: 20:33:09
(UTC+00:00)

GPS 2-04 Rocket1 - Pass Details

Date: 20 September 2019
Orbit: 420 x 552 km, 35.6° (Epoch: 12 October)

Event Time Altitude Azimuth Distance (km) Brightness Sun altitude
Rises 20:00:29 0° 239° (WSW) 2,463 7.1 -18.7°
Reaches altitude 10° 20:02:37 10° 242° (WSW) 1,613 6.0 -19.2°
Maximum altitude 20:06:16 64° 325° (NW) 534 2.8 -20.1°
Enters shadow 20:07:14 44° 25° (NNE) 674 3.0 -20.4°
